Camp Douglas, WI

12:40 PM CDT on August 28, 2016 (GMT -0500)
Volk

Weather History for KVOK - January, 2013

Change the Weather History Date:

Tuesday, January 22, 2013

  Actual Average Record
Temperature  
Mean Temperature -4 °F -  
Max Temperature 5 °F 22 °F 32 °F (2015)
Min Temperature -13 °F 10 °F 12 °F (2016)
Degree Days  
Heating Degree Days 69    
Moisture  
Dew Point -12 °F    
Average Humidity 71    
Maximum Humidity 85    
Minimum Humidity 51    
Precipitation  
Precipitation 0.00 in - - ()
Sea Level Pressure  
Sea Level Pressure 30.37 in    
Wind  
Wind Speed 6 mph (WNW)    
Max Wind Speed 13 mph    
Max Gust Speed 17 mph    
Visibility 10 miles    
Events Snow    
Averages and records for this station are not official NWS values.
T = Trace of Precipitation, MM = Missing Value Source: NWS Daily Summary

Daily Weather History Graph

Daily Weather History Graph

Search for Another Location

Airport or City:

Trip Planner

Search our weather history database for the weather conditions in past years. The results will help you decide how hot, cold, wet, or windy it might be!

Date:

Astronomy

Jan. 22, 2013 Rise Set
Actual Time 7:27 AM CST 4:58 PM CST
Civil Twilight 6:56 AM CST 5:29 PM CST
Nautical Twilight 6:20 AM CST 6:04 PM CST
Astronomical Twilight 5:46 AM CST 6:39 PM CST
Moon 1:19 PM CST (1/22) 3:50 AM CST (1/22)
Length of Visible Light 10h 33m
Length of Day
9h 30m
Waxing Gibbous, 83% of the Moon is Illuminated
Jan 22
Waxing Gibbous
Jan 26
Full
Feb 3
Last Quarter
Feb 10
New
Feb 17
First Quarter

Hourly Weather History & Observations

Time (CST) Temp. Windchill Dew Point Humidity Pressure Visibility Wind Dir Wind Speed Gust Speed Precip Events Conditions
12:35 AM -9.4 °F -20.9 °F -14.8 °F 77% 30.35 in 10.0 mi NW 4.6 mph - N/A   Mostly Cloudy
12:39 AM -9.4 °F -20.9 °F -14.8 °F 77% 30.35 in 9.0 mi NW 4.6 mph - N/A   Mostly Cloudy
12:55 AM -9.0 °F -20.4 °F -14.3 °F 78% 30.35 in 8.0 mi West 4.6 mph - N/A   Overcast
1:04 AM -9.4 °F -20.9 °F -14.8 °F 77% 30.35 in 7.0 mi WNW 4.6 mph - N/A Snow Light Snow
1:16 AM -9.4 °F -22.7 °F -14.8 °F 77% 30.35 in 6.0 mi WNW 5.8 mph - N/A   Haze
1:19 AM -9.4 °F -22.7 °F -14.8 °F 77% 30.35 in 7.0 mi WNW 5.8 mph - N/A   Overcast
1:28 AM -9.4 °F -22.7 °F -14.8 °F 77% 30.35 in 10.0 mi NW 5.8 mph - N/A   Mostly Cloudy
1:29 AM -9.4 °F -22.7 °F -14.8 °F 77% 30.35 in 10.0 mi NW 5.8 mph - N/A   Scattered Clouds
1:55 AM -10.3 °F -21.9 °F -15.3 °F 78% 30.36 in 10.0 mi West 4.6 mph - 0.00 in   Clear
2:55 AM -12.1 °F -24.0 °F -16.8 °F 80% 30.38 in 10.0 mi West 4.6 mph - N/A   Clear
3:55 AM -12.5 °F -22.1 °F -17.5 °F 78% 30.36 in 10.0 mi West 3.5 mph - N/A   Clear
4:55 AM -10.8 °F -22.5 °F -15.9 °F 78% 30.36 in 10.0 mi West 4.6 mph - N/A   Clear
5:55 AM -11.9 °F -25.7 °F -17.0 °F 78% 30.37 in 10.0 mi WNW 5.8 mph - N/A   Clear
6:55 AM -13.0 °F -25.1 °F -18.4 °F 77% 30.39 in 10.0 mi West 4.6 mph - N/A   Clear
7:55 AM -11.2 °F -24.8 °F -16.6 °F 77% 30.40 in 10.0 mi WNW 5.8 mph - N/A   Partly Cloudy
8:55 AM -5.8 °F -22.4 °F -13.0 °F 71% 30.41 in 10.0 mi NW 9.2 mph - N/A   Partly Cloudy
9:55 AM -4.0 °F -22.1 °F -13.0 °F 65% 30.41 in 10.0 mi WNW 11.5 mph - N/A   Partly Cloudy
10:55 AM -2.2 °F -18.9 °F -13.0 °F 60% 30.42 in 10.0 mi WNW 10.4 mph - N/A   Partly Cloudy
11:55 AM 1.4 °F -14.5 °F -11.2 °F 56% 30.40 in 10.0 mi WNW 10.4 mph - N/A   Mostly Cloudy
12:55 PM 3.2 °F -13.1 °F -11.2 °F 51% 30.38 in 10.0 mi West 11.5 mph - N/A   Scattered Clouds
1:55 PM 5.0 °F -11.6 °F -9.4 °F 52% 30.37 in 10.0 mi WNW 12.7 mph 17.3 mph N/A   Scattered Clouds
2:55 PM 5.0 °F -8.1 °F -9.4 °F 52% 30.38 in 10.0 mi WNW 8.1 mph - N/A   Mostly Cloudy
3:55 PM 5.0 °F -10.0 °F -9.4 °F 52% 30.38 in 10.0 mi WNW 10.4 mph - N/A   Mostly Cloudy
4:55 PM 3.2 °F -10.3 °F -9.4 °F 56% 30.37 in 10.0 mi WNW 8.1 mph - N/A   Mostly Cloudy
5:55 PM 3.2 °F -4.2 °F -7.6 °F 61% 30.37 in 10.0 mi NNW 3.5 mph - N/A   Mostly Cloudy
6:55 PM 1.4 °F -6.2 °F -5.8 °F 72% 30.38 in 10.0 mi NW 3.5 mph - N/A   Overcast
7:55 PM 1.4 °F - -5.8 °F 72% 30.35 in 10.0 mi Calm Calm - N/A   Overcast
8:55 PM -0.4 °F -12.0 °F -7.6 °F 72% 30.35 in 10.0 mi West 5.8 mph - N/A   Mostly Cloudy
9:55 PM -4.0 °F - -7.6 °F 85% 30.36 in 10.0 mi Calm Calm - N/A   Mostly Cloudy
10:55 PM -4.0 °F - -7.6 °F 85% 30.35 in 10.0 mi Calm Calm - N/A   Mostly Cloudy
11:55 PM -1.1 °F - -5.6 °F 81% 30.32 in 10.0 mi Calm Calm - N/A   Overcast